Location: *
(43.7000°S, 168.7000°W)
Time: 15:06:44
(UTC+00:00)

USA 234 - Pass Details

Date: 07 July 2020
Orbit: 1101 x 1106 km, 123.0° (Epoch: 01 August)

Event Time Altitude Azimuth Distance (km) Brightness Sun altitude
Rises 16:24:08 0° 47° (NE) 3,924 7.0 -25.2°
Reaches altitude 10° 16:26:37 10° 45° (NE) 2,972 6.2 -24.7°
Maximum altitude 16:33:12 78° 318° (NW) 1,143 3.2 -23.5°
Enters shadow 16:35:49 40° 239° (WSW) 1,581 3.6 -23.1°
